CW8250 Weather Reports


Display with metric or nautical units.
time (UTC)temp
F
wind
direction
speed
MPH
gust
MPH
rain 1hr
in
rain 24hr
in
rain mn
in
humidity
%
barometer
mb
20190120021012 23 97 2.0 3.0 0.00 0.00 0.00 88 1016.1
20190120020508 23 97 2.0 3.0 0.00 0.00 0.00 88 1016.0
20190120020007 23 97 0.0 0.0 0.00 0.00 0.00 88 1016.0
20190120015507 23 97 0.0 0.0 0.00 0.00 0.00 88 1016.0
20190120014508 23 97 1.0 2.0 0.00 0.00 0.00 88 1016.0
20190120013508 23 97 3.0 5.0 0.00 0.00 0.00 88 1016.0
20190120013012 23 97 0.0 0.0 0.00 0.00 0.00 88 1016.0
20190120012012 23 97 0.0 0.0 0.00 0.00 0.00 88 1016.0
20190120011508 23 97 0.0 0.0 0.00 0.00 0.00 88 1016.0
20190120011013 23 97 0.0 0.0 0.00 0.00 0.00 88 1016.0
20190120010008 23 97 0.0 0.0 0.00 0.00 0.00 88 1016.1
20190120005508 23 97 0.0 0.0 0.00 0.00 0.00 88 1016.1
20190120004507 23 97 0.0 0.0 0.00 0.00 0.00 87 1016.1
20190120003012 24 97 0.0 1.0 0.00 0.00 0.00 88 1016.1
20190120002507 23 97 0.0 0.0 0.00 0.00 0.00 88 1016.1
20190120002013 23 97 0.0 1.0 0.00 0.00 0.00 88 1016.1
20190120001508 23 97 0.0 0.0 0.00 0.00 0.00 88 1015.7
20190120000508 23 97 0.0 0.0 0.00 0.00 0.00 87 1015.7
20190119235944 23 97 0.0 0.0 0.00 0.00 0.00 87 1015.7
20190119235444 23 97 0.0 0.0 0.00 0.00 0.00 87 1015.7
20190119234948 23 97 0.0 0.0 0.00 0.00 0.00 87 1015.7
20190119233444 24 97 0.0 0.0 0.00 0.00 0.00 87 1015.7
20190119232948 24 97 0.0 2.0 0.00 0.00 0.00 87 1015.7
20190119232444 24 97 0.0 2.0 0.00 0.00 0.00 88 1015.7
20190119231948 24 97 0.0 0.0 0.00 0.00 0.00 87 1015.7
20190119230948 24 97 0.0 0.0 0.00 0.00 0.00 87 1015.7
20190119230444 24 97 0.0 0.0 0.00 0.00 0.00 88 1015.7
20190119225944 24 97 0.0 3.0 0.00 0.00 0.00 88 1015.7
20190119225444 24 97 0.0 2.0 0.00 0.00 0.00 88 1015.7
20190119224948 24 98 1.0 5.0 0.00 0.00 0.00 88 1015.7
20190119223948 24 99 0.0 0.0 0.00 0.00 0.00 87 1015.7
20190119223444 24 99 0.0 0.0 0.00 0.00 0.00 87 1015.6
20190119222948 24 99 0.0 2.0 0.00 0.00 0.00 87 1015.6
20190119222444 24 99 0.0 2.0 0.00 0.00 0.00 87 1015.6
20190119221444 25 99 0.0 0.0 0.00 0.00 0.00 87 1015.6
20190119220948 25 97 1.0 3.0 0.00 0.00 0.00 87 1015.6
20190119220444 25 97 0.0 3.0 0.00 0.00 0.00 87 1015.6
20190119215944 25 97 0.0 3.0 0.00 0.00 0.00 87 1015.6
20190119215443 25 97 1.0 3.0 0.00 0.00 0.00 87 1015.6
20190119214948 26 97 1.0 3.0 0.00 0.00 0.00 87 1015.6
20190119214444 26 98 1.0 3.0 0.00 0.00 0.00 87 1015.6
20190119213948 26 98 0.0 2.0 0.00 0.00 0.00 87 1015.6
20190119213444 26 98 0.0 0.0 0.00 0.00 0.00 87 1015.6
20190119212947 26 98 1.0 3.0 0.00 0.00 0.00 87 1015.6
20190119212443 26 98 1.0 5.0 0.00 0.00 0.00 87 1015.6
20190119204947 26 104 1.0 3.0 0.00 0.00 0.00 87 1015.5
20190119204444 26 104 2.0 5.0 0.00 0.00 0.00 87 1015.5
20190119203948 27 102 0.0 2.0 0.00 0.00 0.00 87 1015.5
20190119202948 27 102 0.0 0.0 0.00 0.00 0.00 87 1015.5
20190119202443 27 102 0.0 1.0 0.00 0.00 0.00 87 1015.5
20190119201444 27 102 1.0 3.0 0.00 0.00 0.00 87 1015.5
20190119195944 28 99 0.0 5.0 0.00 0.00 0.00 87 1015.5
20190119195444 28 97 2.0 5.0 0.00 0.00 0.00 87 1015.5
20190119194948 28 94 0.0 2.0 0.00 0.00 0.00 87 1015.4
20190119194443 28 94 1.0 5.0 0.00 0.00 0.00 87 1015.4
20190119193947 28 106 1.0 5.0 0.00 0.00 0.00 86 1015.4
20190119193444 28 96 1.0 3.0 0.00 0.00 0.00 86 1015.4
20190119192948 28 94 2.0 6.0 0.00 0.00 0.00 86 1015.4
20190119191947 28 99 2.0 5.0 0.00 0.00 0.00 86 1015.5
20190119191444 28 98 1.0 2.0 0.00 0.00 0.00 86 1015.5
20190119190444 28 85 3.0 8.0 0.00 0.00 0.00 86 1015.5
20190119184947 28 92 1.0 3.0 0.00 0.00 0.00 86 1015.5
20190119184444 28 92 1.0 7.0 0.00 0.00 0.00 86 1015.4
20190119183948 28 103 1.0 6.0 0.00 0.00 0.00 86 1015.4
20190119183444 28 104 1.0 3.0 0.00 0.00 0.00 86 1015.4
20190119182948 28 103 0.0 3.0 0.00 0.00 0.00 86 1015.4
20190119182444 28 103 1.0 3.0 0.00 0.00 0.00 87 1015.4
20190119181948 28 103 0.0 1.0 0.00 0.00 0.00 87 1015.4
20190119181444 28 103 1.0 2.0 0.00 0.00 0.00 86 1015.4
20190119180444 28 103 1.0 3.0 0.00 0.00 0.00 87 1015.4
20190119175944 28 103 1.0 3.0 0.00 0.00 0.00 87 1015.5
20190119175444 28 103 0.0 0.0 0.00 0.00 0.00 87 1015.5
20190119174444 28 103 0.0 0.0 0.00 0.00 0.00 87 1015.5
20190119173445 28 103 1.0 3.0 0.00 0.00 0.00 86 1015.5
20190119172947 28 103 0.0 0.0 0.00 0.00 0.00 86 1015.5
20190119172444 29 103 0.0 0.0 0.00 0.00 0.00 86 1015.5
20190119171948 29 103 0.0 0.0 0.00 0.00 0.00 86 1015.6
20190119171444 29 103 0.0 0.0 0.00 0.00 0.00 86 1015.6
20190119170948 29 103 0.0 3.0 0.00 0.00 0.00 86 1015.6
20190119170444 29 103 0.0 0.0 0.00 0.00 0.00 86 1015.6
20190119165944 29 103 0.0 0.0 0.00 0.00 0.00 86 1015.6
20190119165443 29 103 0.0 0.0 0.00 0.00 0.00 86 1015.6
20190119164947 29 103 0.0 0.0 0.00 0.00 0.00 86 1015.6
20190119164444 29 103 0.0 0.0 0.00 0.00 0.00 86 1015.6
20190119163948 30 103 0.0 0.0 0.00 0.00 0.00 85 1015.6
20190119163445 30 103 0.0 2.0 0.00 0.00 0.00 85 1015.6
20190119162948 30 103 0.0 0.0 0.00 0.00 0.00 86 1015.6
20190119162443 30 103 0.0 0.0 0.00 0.00 0.00 86 1015.6
20190119161948 30 103 0.0 0.0 0.00 0.00 0.00 86 1015.6
20190119161443 30 103 0.0 0.0 0.00 0.00 0.00 85 1015.6
20190119160948 30 103 0.0 0.0 0.00 0.00 0.00 85 1015.5
20190119155945 31 103 0.0 3.0 0.00 0.00 0.00 85 1015.6
20190119155444 31 103 0.0 0.0 0.00 0.00 0.00 85 1015.6
20190119154948 31 103 0.0 0.0 0.00 0.00 0.00 84 1015.6
20190119154447 31 103 0.0 3.0 0.00 0.00 0.00 84 1015.6
20190119153948 32 103 0.0 3.0 0.00 0.00 0.00 84 1015.6
20190119153445 32 103 0.0 0.0 0.00 0.00 0.00 83 1015.6
20190119152948 32 103 0.0 3.0 0.00 0.00 0.00 83 1015.8
20190119152444 33 103 1.0 3.0 0.00 0.00 0.00 83 1015.8
20190119151948 33 103 2.0 6.0 0.00 0.00 0.00 82 1015.8
20190119151444 33 111 2.0 6.0 0.00 0.00 0.00 82 1015.8
20190119145944 34 142 1.0 3.0 0.00 0.00 0.00 80 1015.8
20190119145444 34 101 0.0 0.0 0.00 0.00 0.00 79 1015.8
20190119144948 35 101 0.0 8.0 0.00 0.00 0.00 79 1015.8
20190119144444 35 106 3.0 8.0 0.00 0.00 0.00 79 1015.7
20190119143948 35 110 2.0 6.0 0.00 0.00 0.00 79 1016.0
20190119143444 35 111 1.0 3.0 0.00 0.00 0.00 78 1016.0
20190119142948 35 115 1.0 6.0 0.00 0.00 0.00 78 1016.0
20190119142443 35 111 1.0 5.0 0.00 0.00 0.00 79 1016.0
20190119141443 36 140 1.0 5.0 0.00 0.00 0.00 79 1016.0
20190119140947 36 126 2.0 5.0 0.00 0.00 0.00 79 1016.1
20190119140444 36 127 1.0 3.0 0.00 0.00 0.00 78 1016.1
20190119135944 36 129 0.0 6.0 0.00 0.00 0.00 77 1016.1
20190119135444 36 109 0.0 6.0 0.00 0.00 0.00 77 1016.1
20190119134948 37 112 2.0 6.0 0.00 0.00 0.00 78 1016.2
20190119134444 37 121 1.0 3.0 0.00 0.00 0.00 78 1016.2
20190119133948 37 129 1.0 5.0 0.00 0.00 0.00 77 1016.2
20190119133444 37 134 2.0 6.0 0.00 0.00 0.00 75 1016.3
20190119132948 37 97 0.0 6.0 0.00 0.00 0.00 76 1016.3
20190119130948 37 108 2.0 7.0 0.00 0.00 0.00 74 1016.5
20190119130444 37 124 3.0 8.0 0.00 0.00 0.00 74 1016.6
20190119125945 37 159 1.0 7.0 0.00 0.00 0.00 76 1016.9
20190119124948 37 140 2.0 7.0 0.00 0.00 0.00 76 1016.9
20190119124444 37 154 5.0 13.0 0.00 0.00 0.00 76 1016.9
20190119123444 37 132 1.0 6.0 0.00 0.00 0.00 77 1016.9
20190119121445 37 127 2.0 8.0 0.00 0.00 0.00 77 1017.2
20190119120444 37 123 1.0 6.0 0.00 0.01 0.00 79 1017.2
20190119115443 36 134 0.0 5.0 0.00 0.01 0.00 79 1017.4
20190119114948 36 130 1.0 5.0 0.00 0.01 0.00 79 1017.4
20190119114443 36 144 1.0 5.0 0.00 0.01 0.00 79 1017.4
20190119113948 36 149 4.0 7.0 0.00 0.01 0.00 80 1017.7
20190119113445 35 150 2.0 6.0 0.00 0.01 0.00 80 1017.7
20190119112948 35 140 5.0 8.0 0.00 0.01 0.00 80 1017.7
20190119112444 35 157 3.0 8.0 0.00 0.01 0.00 81 1017.7
20190119111949 35 150 3.0 7.0 0.00 0.01 0.00 82 1017.7
20190119110948 34 146 3.0 8.0 0.00 0.02 0.00 83 1017.9
20190119110444 34 152 2.0 9.0 0.00 0.02 0.00 83 1017.9
20190119105945 34 168 2.0 8.0 0.00 0.02 0.00 84 1017.9
20190119105444 33 113 2.0 6.0 0.00 0.02 0.00 84 1017.9
20190119104947 33 98 0.0 6.0 0.00 0.02 0.00 84 1017.9
20190119103948 33 121 0.0 0.0 0.00 0.02 0.00 84 1018.0
20190119103444 33 121 0.0 0.0 0.00 0.02 0.00 84 1018.0
20190119102948 33 121 0.0 0.0 0.00 0.02 0.00 84 1018.0
20190119101949 32 147 1.0 5.0 0.00 0.02 0.00 85 1018.0
20190119101444 32 135 0.0 6.0 0.00 0.02 0.00 86 1018.0
20190119100444 32 134 2.0 6.0 0.00 0.02 0.00 87 1018.1
20190119095945 31 119 1.0 6.0 0.00 0.02 0.00 88 1018.1
20190119095444 31 190 0.0 0.0 0.00 0.02 0.00 89 1018.1
20190119094948 31 190 0.0 3.0 0.00 0.02 0.00 90 1018.1
20190119094444 30 191 0.0 3.0 0.00 0.02 0.00 90 1018.1
20190119092948 29 197 0.0 2.0 0.00 0.02 0.00 91 1018.1
20190119092444 28 197 0.0 1.0 0.00 0.02 0.00 91 1018.1
20190119090948 27 198 0.0 0.0 0.00 0.02 0.00 91 1018.2
20190119090445 27 198 0.0 0.0 0.00 0.02 0.00 91 1018.2
20190119085944 27 198 0.0 2.0 0.00 0.02 0.00 91 1018.2
20190119085444 27 198 0.0 0.0 0.00 0.02 0.00 91 1018.1
20190119084948 26 198 0.0 1.0 0.00 0.02 0.00 91 1018.1
20190119083948 26 0 0.0 0.0 0.00 0.02 0.00 91 1018.1
20190119082444 26 0 0.0 0.0 0.00 0.02 0.00 91 1018.1
20190119081444 26 0 0.0 0.0 0.00 0.02 0.00 91 1018.2
20190119080948 26 0 0.0 0.0 0.00 0.02 0.00 91 1018.2
20190119080444 26 0 0.0 0.0 0.00 0.02 0.00 91 1018.2
20190119075944 26 0 0.0 0.0 0.00 0.02 0.00 91 1018.2
20190119075444 26 0 0.0 0.0 0.00 0.02 0.00 91 1018.2
20190119074948 26 0 0.0 0.0 0.00 0.02 0.00 92 1018.2
20190119073444 26 0 0.0 0.0 0.00 0.02 0.00 92 1018.0
20190119072948 26 0 0.0 0.0 0.00 0.02 0.00 91 1018.0
20190119072444 26 0 0.0 0.0 0.00 0.02 0.00 91 1018.0
20190119071948 26 0 0.0 0.0 0.00 0.02 0.00 91 1018.0
20190119070948 26 0 0.0 0.0 0.00 0.02 0.00 91 1018.0
20190119064949 26 0 0.0 0.0 0.00 0.02 0.00 92 1018.0
20190119064444 26 0 0.0 0.0 0.00 0.02 0.00 91 1018.0
20190119063949 26 0 0.0 0.0 0.00 0.02 0.00 91 1018.0
20190119063444 26 0 0.0 0.0 0.00 0.02 0.00 91 1018.0
20190119062949 25 0 0.0 0.0 0.00 0.02 0.00 91 1018.0
20190119061948 26 0 0.0 0.0 0.00 0.02 0.00 91 1018.0
20190119061444 26 0 0.0 0.0 0.00 0.02 0.00 91 1017.9
20190119060949 26 0 0.0 0.0 0.00 0.02 0.00 91 1018.0
20190119060445 26 0 0.0 0.0 0.00 0.02 0.00 91 1018.0
20190119055945 26 0 0.0 0.0 0.00 0.02 0.00 91 1018.1
20190119055444 26 0 0.0 0.0 0.00 0.02 0.00 91 1018.1
20190119054948 26 0 0.0 0.0 0.00 0.02 0.00 91 1018.1
20190119054445 26 198 0.0 0.0 0.00 0.02 0.00 91 1018.1
20190119053445 26 198 0.0 0.0 0.00 0.02 0.00 91 1018.1
20190119052949 26 198 0.0 0.0 0.00 0.02 0.00 91 1018.1
20190119052444 26 198 0.0 0.0 0.00 0.02 0.00 91 1018.1
20190119051948 26 198 0.0 0.0 0.00 0.02 0.00 91 1018.2
20190119051445 26 198 0.0 0.0 0.00 0.02 0.00 91 1018.2
20190119050949 27 198 0.0 0.0 0.00 0.02 0.00 91 1018.2
20190119050444 27 198 0.0 0.0 0.00 0.02 0.00 91 1018.2
20190119044948 27 198 0.0 0.0 0.00 0.02 0.00 91 1018.3
20190119043446 27 198 0.0 3.0 0.00 0.02 0.00 91 1018.5
20190119042948 27 198 0.0 3.0 0.00 0.02 0.00 91 1018.5
20190119042445 27 198 0.0 2.0 0.00 0.02 0.00 91 1018.5
20190119041444 27 198 0.0 2.0 0.00 0.02 0.00 91 1018.5
20190119040949 27 198 1.0 3.0 0.00 0.02 0.00 91 1018.5
20190119035945 27 198 0.0 0.0 0.00 0.02 0.00 91 1018.5
20190119035444 27 198 0.0 0.0 0.00 0.02 0.00 91 1018.5
20190119034948 27 198 0.0 0.0 0.00 0.02 0.00 91 1018.5
20190119034444 28 198 0.0 0.0 0.00 0.02 0.00 91 1018.7
20190119033949 28 198 0.0 0.0 0.00 0.02 0.00 91 1018.7
20190119032949 28 198 0.0 0.0 0.00 0.02 0.00 91 1018.7
20190119025945 29 198 0.0 0.0 0.00 0.02 0.00 92 1018.8
20190119025445 29 198 0.0 1.0 0.00 0.02 0.00 92 1018.8
20190119024949 29 198 1.0 2.0 0.00 0.02 0.00 92 1018.8
20190119024445 29 198 0.0 2.0 0.00 0.02 0.00 92 1018.8
20190119023445 28 198 0.0 2.0 0.00 0.02 0.00 92 1018.8
20190119022949 28 198 0.0 2.0 0.00 0.02 0.00 92 1018.9
20190119022444 28 198 1.0 3.0 0.00 0.02 0.00 92 1018.9